Flag for Germany Weather past 2 weeks in Waren (Müritz), Mecklenburg-Western Pomerania, Germany

Now
72 °F

Scattered clouds.


Feels Like: 71 °F
Forecast: 63 / 85 °F
Wind: 7 mph from North

Location: Laage

Current Time: Jul 28, 2014 at 9:39:04 AM

Latest Report: Jul 28, 2014 at 8:50 AM


Visibility: 4 mi

Pressure: 29.95 "Hg

Humidity: 83%

Dew point: 66 °F

Location of Waren (Müritz)Location

Historic Weather in Waren (Müritz) — Graph

°F

Waren (Müritz) temperature yesterday

Maximum temperature yesterday: 84 °F (at 1:20 PM)
Minimum temperature yesterday: 61 °F (at 2:20 AM)
Average temperature yesterday: 71 °F

Past Weeks' High & Low Weather Summary

 TemperatureHumidityPressure
High84 °F (Jul 19, 2:20 PM)100% (Jul 14, 6:20 AM)30.18 "Hg (Jul 14, 6:20 AM)
Low55 °F (Jul 17, 4:20 AM)35% (Jul 19, 3:20 PM)29.68 "Hg (Jul 13, 5:20 PM)
Average69 °F71%30.01 "Hg
* Reported Jul 13 8:20 AM — Jul 28 8:20 AM, Waren (Müritz), Weather by CustomWeather, © 2014

Note: Actual official high and low records may vary slightly from our data, if they occured in-between our weather recording intervals... More about our weather records

Advertising

Waren (Müritz) weather history for previous 24 hours

 ConditionsComfort  
Time TempWeatherWind HumidityBarometerVisibility
8:20 AM
Jul 28
70 °FFog.6 mph88%29.95 "Hg3 mi
7:20 AM66 °FFog.3 mph94%29.95 "Hg3 mi
6:20 AM64 °FFog.6 mph94%29.95 "Hg2 mi
5:20 AM63 °FFog.6 mph94%29.92 "Hg3 mi
4:20 AM63 °FFog.5 mph100%29.92 "Hg5 mi
3:20 AM64 °FPassing clouds.5 mph94%29.95 "HgN/A
2:20 AM64 °FFog.No wind94%29.95 "HgN/A
1:20 AM64 °FPassing clouds.No wind94%29.95 "HgN/A
12:20 AM66 °FPassing clouds.3 mph94%29.95 "HgN/A
11:20 PM
Jul 27
66 °FPassing clouds.3 mph94%29.95 "HgN/A
10:20 PM68 °FPassing clouds.No wind94%29.95 "HgN/A
9:20 PM70 °FScattered clouds.2 mph88%29.92 "HgN/A
8:20 PM75 °FScattered clouds.3 mph69%29.95 "HgN/A
7:20 PM75 °FThundershowers. Partly sunny.5 mph65%29.92 "HgN/A
6:20 PM73 °FThundershowers. Partly sunny.3 mph83%29.92 "HgN/A
5:45 PM75 °FThundershowers. Scattered clouds.12 mph69%29.92 "HgN/A
5:20 PM75 °FScattered showers. Scattered clouds.14 mph74%29.92 "HgN/A
4:20 PM72 °FThunderstorms. Broken clouds.7 mph73%29.92 "HgN/A
3:20 PM84 °FPartly sunny.6 mph45%29.92 "HgN/A
2:20 PM84 °FScattered clouds.6 mph45%29.92 "HgN/A
1:20 PM84 °FScattered clouds.3 mph45%29.92 "HgN/A
12:20 PM82 °FBroken clouds.3 mph48%29.95 "HgN/A
11:20 AM81 °FBroken clouds.3 mph54%29.95 "HgN/A
10:20 AM75 °FPartly sunny.2 mph69%29.95 "HgN/A
9:20 AM70 °FBroken clouds.5 mph83%29.98 "HgN/A
Weather by CustomWeather, © 2014

See weather overviewHow to use our weather pages